Regional Weather Roundup
Issued by NWS New Orleans/Baton Rouge, LA

Home | Current Version | Previous Version | Text Only | Print | Product List | Glossary Off
Versions: 1 2 3 4 5 6 7 8 9 10 11 12 13 14 15 16 17 18 19 20 21 22 23 24 25 26 27 28 29 30 31 32 33 34 35 36 37 38 39 40 41 42 43 44 45 46 47 48 49 50

555
ASUS44 KLIX 301605
RWRLIX
NEW ORLEANS REGIONAL WEATHER ROUNDUP
NATIONAL WEATHER SERVICE NEW ORLEANS LA
1100 AM CDT SAT AUG 30 2014

NOTE: "FAIR" INDICATES FEW OR NO CLOUDS BELOW 12,000 FEET WITH NO
      SIGNIFICANT WEATHER AND/OR OBSTRUCTIONS TO VISIBILITY.
      SKY/WX - SKY CONDITION AND SIGNIFICANT WEATHER.
      TMP - AIR TEMPERATURE.     DP    - DEWPOINT TEMPERATURE.
      RH  - RELATIVE HUMIDITY.   PRES  - PRESSURE.
      HI  - HEAT INDEX.          WCI   - WIND CHILL INDEX.

*  THESE STATIONS ARE NOT NWS OR FAA STATIONS AND ARE NOT UNDER
   NWS QUALITY CONTROL.

LAZ038-040-048-061>063-065>067-069-301700-
SOUTHEAST LOUISIANA

CITY           SKY/WX    TMP DP  RH WIND       PRES   REMARKS
N.O. AUDUBON     N/A     76  73  89 MISG        N/A
N.O. INTL ARPT LGT RAIN  77  72  84 S12       30.03S
N.O. LAKEFRONT HVY RAIN  78  72  81 SW17G43   30.03F VSB 1/2
N.O. DOWNTOWN* CLOUDY    79  70  73 SW5G23    30.05R
SLIDELL        PTSUNNY   86  76  71 SE14G22   30.03S HX  96
BATON ROUGE    HVY RAIN  76  72  87 S17G28    30.03R VSB 1
BOOTHVILLE     LGT RAIN  85  79  82 SE16G23   30.05R HX  98
BELLE CHASSE   TSTM      77  72  84 S9        30.01S
BOGALUSA*        N/A     89  75  63 S13G18    30.05F HX  98
GALLIANO*      NOT AVBL
NEW ROADS*     CLOUDY    73  72  94 S12       30.03R
GONZALES*      CLOUDY    80  74  82 CALM      30.03R HAZE
HAMMOND*       CLOUDY    86  75  70 SE9       30.04S HX  95
HOUMA*         SHOWER    81  77  89 SE9       30.02S
PORT FOURCHON* MOSUNNY   88  79  74 S15G25    30.04R HX 102

$$

MSZ070-080>082-301700-
SOUTHERN MISSISSIPPI

CITY           SKY/WX    TMP DP  RH WIND       PRES   REMARKS
MCCOMB         LGT RAIN  83  74  74 SE7       30.03F
GULFPORT       MOSUNNY   87  78  74 SE16      30.05S HX 100
BILOXI         MOSUNNY   90  77  66 SE10      30.06S HX 102
PASCAGOULA     MOSUNNY   89  77  67 S16       30.07S HX 101
STENNIS ARPT*  PTSUNNY  N/A N/A N/A MISG      30.05S

$$

COASTAL OBSERVATIONS
LAKE AND NEARSHORE STATIONS

STATION/POSITION TIME  TEMP    WIND        PRES    WAVE
                       AIR SEA DIR/SP/G            HT/PER
                 (UTC) (F)     (DEG/KT/KT) (MB)    (FT/S)
PASCAGOULA       1600   88     140/ 11/ 16 1017.9
WAVELAND YACHT   1600   84     150/ 13/ 16 1017.0
GRAND ISLE       1600   86 83  160/  9/ 17 1017.5
SOUTHWEST PASS   1600   87 89  150/ 15/ 20 1017.6
NEW CANAL        1600   82 82  250/  8/ 12 1017.2
SHELL BEACH      1600   85 81  130/ 16/ 21 1016.8

OFFSHORE STATIONS

STATION/POSITION TIME  TEMP    WIND        PRES    WAVE
                       AIR SEA DIR/SP/G            HT/PER
                 (UTC) (F)     (DEG/KT/KT) (MB)    (FT/S)
64 S DAUPHIN ISL 1500   85 85  140/ 17/ 19 1018.1

$$




USA.gov is the U.S. government's official web portal to all federal, state and local government web resources and services.